Вернуться в каталог

COSMOS 1275 DEB

АктивенPO
NORAD 42155·DEBRIS·🇷🇺 Russia

Запущен Jun 4, 1981 с Plesetsk Cosmodrome

Loading…

Ближайшие Пролёты (ближайшие 24 часа)

TLE

УстаревающийSource: Space-Track

Эпоха: Sep 7, 2026, 12:22 UTC

1 42155U 81053RT  26250.51581790  .00001444  00000-0  73996-3 0  9995
2 42155  82.9103 180.8339 0037912 245.5603 114.1618 14.14503184656326

Отслеживайте COSMOS 1275 DEB в реальном времени с AllMySat

Download on the App Store